Regional Weather Roundup
Issued by NWS Charleston, SC

Current Version | Previous Version | Text Only | Print | Product List | Glossary Off
Versions: 1 2 3 4 5 6 7 8 9 10 11 12 13 14 15 16 17 18 19 20 21 22 23 24 25 26 27 28 29 30 31 32 33 34 35 36 37 38 39 40 41 42 43 44 45 46 47 48 49 50

000
ASUS42 KCHS 250710
RWRCHS
REGIONAL WEATHER ROUNDUP
NATIONAL WEATHER SERVICE CHARLESTON SC
200 AM EST THU DEC 25 2014

NOTE: "FAIR" INDICATES FEW OR NO CLOUDS BELOW 12,000 FEET WITH NO
SIGNIFICANT WEATHER AND/OR OBSTRUCTIONS TO VISIBILITY.

NOT ALL STATIONS ARE QUALITY CONTROLLED BY THE NATIONAL
WEATHER SERVICE. USE DATA WITH CAUTION...ESPECIALLY
DEWPOINT OBSERVATIONS.

SCZ027-030-031-034>040-042>050-250800-
...SOUTHEAST SOUTH CAROLINA...

CITY           SKY/WX    TMP DP  RH WIND       PRES   REMARKS
N CHARLESTON   CLOUDY    64  61  88 W13       29.82R
WATERFRONT PRK   N/A     63 N/A N/A SW6         N/A
MOUNT PLEASANT CLOUDY    64  64 100 SW8       29.82R
PINOPOLIS        N/A     64  63  94 SW13      29.72S
MONCKS CORNER  CLOUDY    66  61  82 SW9       29.80R
SUMMERVILLE    LGT RAIN  63  61  94 W12G17    29.83R
BEAUFORT MCAS  CLOUDY    60  55  83 W16G24    29.87R
BEAUFORT ARPT  CLOUDY    61  57  88 W13       29.86R
HILTON HEAD IS CLOUDY    61  54  77 SW16G28   29.89R
WALTERBORO     LGT RAIN  61  61 100 W15G28    29.87R
ALLENDALE      CLOUDY    55  48  76 W10G18    29.89R

...SOUTHERN MIDLANDS AND PEE DEE...

CITY           SKY/WX    TMP DP  RH WIND       PRES   REMARKS
GEORGETOWN     NOT AVBL
KINGSTREE      NOT AVBL
ORANGEBURG     CLOUDY    56  47  71 W13G23    29.86R
BARNWELL       CLOUDY    54  45  71 W10       29.89R
AIKEN          FAIR      50  43  76 W12       29.90R
MANNING        CLOUDY    63  61  94 W7        29.80R
COLUMBIA       CLOUDY    53  43  68 W13       29.85R
SUMTER         CLOUDY    55  48  79 W13G23    29.80R
FLORENCE       CLOUDY    62  57  83 W18       29.77R
MYRTLE BEACH   CLOUDY    66  63  88 SW9       29.79F
N MYRTLE BEACH LGT RAIN  60  59  96 S3        29.77F

$$

GAZ063-065-086>088-099>101-113>116-118-119-134>141-150-250800-
...SOUTHEAST GEORGIA...

CITY           SKY/WX    TMP DP  RH WIND       PRES   REMARKS
SAVANNAH ARPT  CLOUDY    57  49  74 W15       29.91R
HUNTER AAF     CLOUDY    57  53  85 W15G23    29.88R
FORT STEWART   CLOUDY    56  48  75 W18G24    29.93R
STATESBORO     CLOUDY    54  49  84 NW14G21   29.92S
SYLVANIA       CLOUDY    55  49  82 NW15      29.92R
CLAXTON        CLOUDY    54  50  87 W7        29.95R

...CSRA...CENTRAL AND FAR SOUTHEAST GEORGIA...

CITY           SKY/WX    TMP DP  RH WIND       PRES   REMARKS
THOMSON        MOCLDY    52  46  79 W8        29.96R
AUGUSTA-BUSH   CLOUDY    52  42  69 W9        29.90R
AUGUSTA-DANIEL CLOUDY    52  41  66 W9        29.90R
SWAINSBORO     PTSUNNY   54  50  87 W12       29.96R
VIDALIA        CLOUDY    54  46  76 W9        29.96R
EASTMAN        FAIR      52  46  79 W5        29.99R
HAZLEHURST     CLOUDY    54  48  78 NW7       29.96R
ALMA           CLOUDY    54  44  69 W12G20    29.97R
WAYCROSS       CLOUDY    57  50  76 NW7       29.98R
JESUP          CLOUDY    59  52  77 NW15G24   29.96R
BAXLEY         CLOUDY    55  46  71 NW13G21   29.97R
BRUNSWICK      CLOUDY    61  54  77 W13G20    29.94R
SAINT SIMONS   CLOUDY    61  57  87 W10G18    29.92R

$$

SCZ027-028-034-036>038-045-046-048>050-GAZ119-141-250800-
...LAKE AND SUPPLEMENTAL COASTAL OBSERVATIONS...

STATION/POSITION TIME  TEMP    WIND        PRES    WAVE   SWELL
                       AIR SEA DIR/SP/G            HT/PER HT/PER/DIR
                 (UTC) (F)     (DEG/KT/KT) (MB)    (FT/S) (FT/S/D)
UPR LAKE MARION  NOT AVBL
WINYAH BAY       0600   66     240/  9     1008.0S
LAKE MURRAY      0600   53     260/ 13/ 20 1009.8R
ACE BASIN NERRS  NOT AVBL
FORT PULASKI     0700   59 56  270/ 20/ 26 1012.6R
SAPELO ISLAND    0600   63     270/ 16     1012.0R

$$

ANZ835-935-AMZ111-154-330-350-352-354-370-450-454-472-250800-
...C-MAN AND BUOY OBSERVATIONS...

STATION/POSITION TIME  TEMP    WIND        PRES    WAVE   SWELL
                       AIR SEA DIR/SP/G            HT/PER HT/PER/DIR
                 (UTC) (F)     (DEG/KT/KT) (MB)    (FT/S) (FT/S/D)
BUOY 41004       0700   69 72  240/ 19/ 23 1008.3R   7/ 7   3/ 8
BUOY 41008       0700   61 59  300/ 17/ 21 1011.7R   3/ 7   2/140/ 7
FOLLY BEACH CMAN 0600   58     230/  8/ 10 1009.7F
CAPERS NEARSHORE NOT AVBL
FRIPP NEARSHORE  NOT AVBL


STATION/POSITION TIME  TEMP    WIND        PRES    WAVE   SWELL
                       AIR SEA DIR/SP/G            HT/PER HT/PER/DIR
                 (UTC) (F)     (DEG/KT/KT) (MB)    (FT/S) (FT/S/D)
5E ST. MARYS GA  0700      61                N/A     3/ 6
FRYING PAN BUOY  0700   69 71  240/ 23/ 29 1008.9R   7/ 8   5/180/ 8
BUOY 41025       0700   75                 1006.5R   9/ 7
CAPE LOOKOUT NC  0600   65     200/ 15/ 19 1007.3S
BUOY 41002       0623   75 72  200/ 19/ 23 1013.2F   7/ 6   2/ 60/12
BUOY 41010       0700   78 76  200/ 21/ 25 1013.4R   6/ 6   2/180/16
ST AUGUSTINE FL  0700   61     260/  7/ 10 1014.9R


$$



USA.gov is the U.S. government's official web portal to all federal, state and local government web resources and services.